Lynchburg, VA

3:49 AM EST on December 04, 2016 (GMT -0500)
Lynchburg Regional-Glenn

Weather History for KLYH - May, 2014

Change the Weather History Date:

Friday, May 30, 2014

  Actual Average Record
Temperature  
Mean Temperature 68 °F 67 °F  
Max Temperature 74 °F 79 °F 95 °F (1895)
Min Temperature 62 °F 55 °F 44 °F (2000)
Degree Days  
Heating Degree Days 0 2  
Month to date heating degree days 65 120  
Since 1 July heating degree days 4440 4443  
Cooling Degree Days 3 4  
Month to date cooling degree days 93 60  
Year to date cooling degree days 112 78  
Growing Degree Days 18 (Base 50)    
Moisture  
Dew Point 63 °F    
Average Humidity 87    
Maximum Humidity 100    
Minimum Humidity 73    
Precipitation  
Precipitation 0.00 in 0.13 in 1.84 in (1975)
Month to date precipitation 5.39 3.60  
Year to date precipitation 21.02 16.56  
Snow  
Snow 0.00 in - - ()
Month to date snowfall 0.0  
Since 1 July snowfall 21.4  
Snow Depth 0.00 in    
Sea Level Pressure  
Sea Level Pressure 30.12 in    
Wind  
Wind Speed 3 mph (NE)    
Max Wind Speed 12 mph    
Max Gust Speed 17 mph    
Visibility 6 miles    
Events Rain    
T = Trace of Precipitation, MM = Missing Value Source: NWS Daily Summary

Daily Weather History Graph

Daily Weather History Graph

Search for Another Location

Airport or City:

Trip Planner

Search our weather history database for the weather conditions in past years. The results will help you decide how hot, cold, wet, or windy it might be!

Date:

Astronomy

May. 30, 2014 Rise Set
Actual Time 5:58 AM EDT 8:30 PM EDT
Civil Twilight 5:28 AM EDT 9:00 PM EDT
Nautical Twilight 4:50 AM EDT 9:38 PM EDT
Astronomical Twilight 4:09 AM EDT 10:20 PM EDT
Moon 7:40 AM EDT (5/30) 10:07 PM EDT (5/30)
Length of Visible Light 15h 32m
Length of Day
14h 31m
Waxing Crescent, 4% of the Moon is Illuminated
May 30
Waxing Crescent
Jun 5
First Quarter
Jun 13
Full
Jun 19
Last Quarter
Jun 27
New

Hourly Weather History & Observations

Time (EDT) Temp. Dew Point Humidity Pressure Visibility Wind Dir Wind Speed Gust Speed Precip Events Conditions
12:01 AM 62.6 °F 62.6 °F 100% 30.15 in 2.5 mi Calm Calm - 0.00 in Rain Light Rain
12:54 AM 63.0 °F 62.1 °F 97% 30.13 in 3.0 mi Calm Calm - 0.02 in   Overcast
1:54 AM 62.1 °F 62.1 °F 100% 30.11 in 2.0 mi Calm Calm - 0.01 in   Overcast
2:54 AM 62.1 °F 62.1 °F 100% 30.10 in 2.5 mi Calm Calm - 0.01 in   Overcast
3:17 AM 62.6 °F 62.6 °F 100% 30.11 in 3.0 mi Calm Calm - N/A   Overcast
3:31 AM 62.6 °F 62.6 °F 100% 30.11 in 2.5 mi Calm Calm - N/A   Overcast
3:54 AM 62.1 °F 62.1 °F 100% 30.08 in 4.0 mi Calm Calm - N/A   Overcast
4:54 AM 62.6 °F 62.6 °F 100% 30.09 in 7.0 mi North 3.5 mph - N/A   Overcast
5:11 AM 62.6 °F 62.6 °F 100% 30.09 in 1.8 mi North 3.5 mph - N/A   Overcast
5:29 AM 62.6 °F 62.6 °F 100% 30.09 in 3.0 mi NNE 3.5 mph - N/A   Overcast
5:54 AM 62.1 °F 62.1 °F 100% 30.08 in 3.0 mi Calm Calm - N/A   Overcast
5:59 AM 62.6 °F 62.6 °F 100% 30.10 in 1.8 mi Calm Calm - N/A   Overcast
6:07 AM 62.6 °F 62.6 °F 100% 30.10 in 3.0 mi Calm Calm - N/A   Overcast
6:20 AM 62.6 °F 62.6 °F 100% 30.10 in 1.8 mi Calm Calm - N/A   Overcast
6:26 AM 62.6 °F 62.6 °F 100% 30.10 in 0.8 mi Calm Calm - N/A   Overcast
6:54 AM 62.1 °F 62.1 °F 100% 30.09 in 0.8 mi Calm Calm - N/A   Mist
7:01 AM 62.6 °F 62.6 °F 100% 30.11 in 1.2 mi Calm Calm - N/A   Overcast
7:17 AM 62.6 °F 62.6 °F 100% 30.11 in 2.0 mi NE 4.6 mph - N/A   Overcast
7:25 AM 62.6 °F 62.6 °F 100% 30.11 in 6.0 mi NE 3.5 mph - N/A   Overcast
7:42 AM 62.6 °F 62.6 °F 100% 30.11 in 2.0 mi Calm Calm - N/A   Overcast
7:54 AM 63.0 °F 63.0 °F 100% 30.09 in 2.0 mi Calm Calm - N/A   Overcast
8:01 AM 62.6 °F 62.6 °F 100% 30.10 in 10.0 mi North 3.5 mph - N/A   Overcast
8:54 AM 63.0 °F 63.0 °F 100% 30.10 in 7.0 mi Calm Calm - N/A   Overcast
9:09 AM 64.4 °F 62.6 °F 94% 30.12 in 2.0 mi Calm Calm - N/A   Overcast
9:52 AM 66.2 °F 64.4 °F 94% 30.13 in 2.0 mi Calm Calm - N/A   Overcast
9:54 AM 66.0 °F 64.0 °F 93% 30.12 in 2.0 mi Calm Calm - N/A   Overcast
10:01 AM 66.2 °F 62.6 °F 88% 30.13 in 7.0 mi Calm Calm - N/A   Overcast
10:54 AM 64.9 °F 64.0 °F 97% 30.13 in 6.0 mi NE 5.8 mph - N/A   Overcast
11:05 AM 64.4 °F 64.4 °F 100% 30.15 in 6.0 mi NE 3.5 mph - N/A   Overcast
11:38 AM 66.2 °F 64.4 °F 94% 30.15 in 6.0 mi Calm Calm - N/A   Overcast
11:54 AM 66.9 °F 64.0 °F 90% 30.14 in 10.0 mi East 3.5 mph - N/A   Overcast
12:54 PM 68.0 °F 64.0 °F 87% 30.13 in 10.0 mi East 9.2 mph - N/A   Overcast
1:43 PM 69.8 °F 64.4 °F 83% 30.15 in 10.0 mi ENE 8.1 mph - N/A   Overcast
1:51 PM 69.8 °F 64.4 °F 83% 30.15 in 10.0 mi NE 6.9 mph - N/A   Overcast
1:54 PM 69.8 °F 64.4 °F 83% 30.15 in 10.0 mi NE 8.1 mph - N/A   Overcast
2:06 PM 69.8 °F 62.6 °F 78% 30.15 in 10.0 mi East 5.8 mph - N/A   Overcast
2:34 PM 71.6 °F 62.6 °F 73% 30.13 in 10.0 mi Variable 5.8 mph - N/A   Scattered Clouds
2:54 PM 72.0 °F 64.0 °F 76% 30.11 in 10.0 mi ENE 6.9 mph - N/A   Mostly Cloudy
3:01 PM 71.6 °F 62.6 °F 73% 30.13 in 10.0 mi East 4.6 mph - N/A   Scattered Clouds
3:12 PM 71.6 °F 62.6 °F 73% 30.13 in 10.0 mi East 8.1 mph - N/A   Mostly Cloudy
3:37 PM 71.6 °F 62.6 °F 73% 30.12 in 10.0 mi ENE 8.1 mph - N/A   Overcast
3:54 PM 73.0 °F 64.0 °F 73% 30.10 in 10.0 mi NE 8.1 mph - N/A   Overcast
4:24 PM 71.6 °F 62.6 °F 73% 30.12 in 10.0 mi ENE 9.2 mph - N/A   Overcast
4:35 PM 71.6 °F 62.6 °F 73% 30.11 in 10.0 mi ENE 8.1 mph - N/A   Overcast
4:54 PM 71.6 °F 62.6 °F 73% 30.11 in 10.0 mi East 5.8 mph - N/A   Overcast
5:37 PM 71.6 °F 62.6 °F 73% 30.11 in 10.0 mi ENE 8.1 mph - N/A   Overcast
6:16 PM 69.8 °F 60.8 °F 73% 30.12 in 10.0 mi NE 9.2 mph - N/A   Overcast
6:54 PM 66.9 °F 61.0 °F 81% 30.11 in 10.0 mi NE 8.1 mph - N/A   Overcast
7:54 PM 66.0 °F 61.0 °F 84% 30.13 in 10.0 mi NE 6.9 mph - N/A   Overcast
8:54 PM 66.0 °F 61.0 °F 84% 30.14 in 10.0 mi NE 5.8 mph - N/A   Overcast
9:54 PM 64.9 °F 61.0 °F 87% 30.15 in 10.0 mi ENE 4.6 mph - N/A   Overcast
10:54 PM 64.0 °F 61.0 °F 90% 30.17 in 10.0 mi Calm Calm - N/A   Overcast
11:54 PM 64.0 °F 61.0 °F 90% 30.16 in 10.0 mi Calm Calm - N/A   Overcast